Location: Avenches
(46.8809°N, 7.0410°E)
Time: 22:56:32
(UTC+00:00)

Cosmos 2263 - Pass Details

Date: 30 March 2020
Orbit: 833 x 864 km, 70.9° (Epoch: 04 June)

Event Time Altitude Azimuth Distance (km) Brightness Sun altitude
Rises 19:38:58 0° 335° (NNW) 3,398 8.2 -17.2°
Reaches altitude 10° 19:41:30 10° 341° (NNW) 2,457 7.3 -17.5°
Maximum altitude 19:46:59 51° 57° (ENE) 1,040 4.5 -18.4°
Enters shadow 19:49:08 34° 113° (ESE) 1,356 4.7 -18.7°
